This demonstration page uses our WeatherBlox Daily Observations layout. Learn more.

Left ArrowRight Arrow

36.17497, -115.13722

Hourly Observations for March 31, 2019

Temp ( °F °C ) Dew Point ( °F °C ) Humidity (%) Winds ( mph kmh ) Pressure ( in mb ) Visibility ( mi km ) Precip ( " mm )
12:53 am 00:53 Clear 61 16.1 22 -5.6 22 22 ENE 10 17 30.14 1021 10 16 0.00 0.00
1:53 am 01:53 Clear 59 15 23 -5 25 25 Calm 30.15 1021 10 16 0.00 0.00
2:53 am 02:53 Clear 56 13.3 23 -5 28 28 WSW 5 7 30.16 1021 10 16 0.00 0.00
3:53 am 03:53 Clear 56 13.3 23 -5 28 28 NNW 8 13 30.16 1022 10 16 0.00 0.00
4:53 am 04:53 Clear 56 13.3 23 -5 28 28 NNW 10 17 30.17 1022 10 16 0.00 0.00
5:53 am 05:53 Clear 55 12.8 24 -4.4 30 30 NNW 15 24 30.19 1022 10 16 0.00 0.00
6:53 am 06:53 Sunny 54 12.2 25 -3.9 33 33 N 14 22 30.19 1023 10 16 0.00 0.00
7:53 am 07:53 Sunny 57 13.9 26 -3.3 30 30 NNW 13 20 30.21 1023 10 16 0.00 0.00
8:53 am 08:53 Sunny 60 15.6 25 -3.9 26 26 NNW 17 28 30.22 1023 10 16 0.00 0.00
9:53 am 09:53 Sunny 62 16.7 25 -3.9 24 24 N 14 22 30.22 1023 10 16 0.00 0.00
10:53 am 10:53 Sunny 64 17.8 23 -5 21 21 NE 10 17 30.21 1023 10 16 0.00 0.00
11:53 am 11:53 Sunny 67 19.4 22 -5.6 18 18 NNE 12 19 30.19 1022 10 16 0.00 0.00
12:53 pm 12:53 Sunny 68 20 21 -6.1 17 17 N 8 13 30.17 1022 10 16 0.00 0.00
1:53 pm 13:53 Sunny 69 20.6 21 -6.1 16 16 E 12 19 30.14 1021 10 16 0.00 0.00
2:53 pm 14:53 Sunny 71 21.7 20 -6.7 14 14 ENE 12 19 30.11 1020 10 16 0.00 0.00
3:53 pm 15:53 Sunny 72 22.2 19 -7.2 13 13 ENE 13 20 30.09 1019 10 16 0.00 0.00
4:53 pm 16:53 Sunny 70 21.1 18 -7.8 14 14 E 3 6 30.08 1019 10 16 0.00 0.00
5:53 pm 17:53 Sunny 70 21.1 17 -8.3 13 13 VRB 7 11 30.07 1018 10 16 0.00 0.00
6:53 pm 18:53 Sunny 68 20 18 -7.8 15 15 SE 8 13 30.08 1019 10 16 0.00 0.00
7:53 pm 19:53 Clear 64 17.8 20 -6.7 18 18 ESE 8 13 30.09 1019 10 16 0.00 0.00
8:53 pm 20:53 Clear 63 17.2 21 -6.1 20 20 Calm 30.11 1020 10 16 0.00 0.00
9:53 pm 21:53 Clear 63 17.2 23 -5 22 22 Calm 30.12 1020 10 16 0.00 0.00
10:53 pm 22:53 Clear 59 15 25 -3.9 27 27 NNW 5 7 30.11 1020 10 16 0.00 0.00
11:53 pm 23:53 Clear 59 15 25 -3.9 27 27 W 6 9 30.11 1020 10 16 0.00 0.00

Powered by AerisWeather